FW3814 Weather Reports


time (UTC)temp
F
wind
direction
speed
knots
gust
knots
rain 1hr
in
rain 24hr
in
rain mn
in
humidity
%
barometer
mb
20260905091505 83 0 0.0 0.0 0.00 0.00 0.00 52 1017.2
20260905091026 83 0 0.0 0.0 0.00 0.00 0.00 53 1017.0
20260905090505 81 0 0.0 0.0 0.00 0.00 0.00 59 1017.0
20260905090026 81 0 0.0 0.0 0.00 0.00 0.00 59 1017.0
20260905085526 81 0 0.0 0.0 0.00 0.00 0.00 59 1017.1
20260905085005 80 0 0.0 0.0 0.00 0.00 0.00 60 1017.1
20260905084505 80 0 0.0 0.0 0.00 0.00 0.00 60 1017.2
20260905084005 79 0 0.0 0.0 0.00 0.00 0.00 61 1017.1
20260905083505 78 0 0.0 0.0 0.00 0.00 0.00 61 1017.0
20260905083005 78 0 0.0 0.0 0.00 0.00 0.00 62 1017.0
20260905082505 77 0 0.0 0.0 0.00 0.00 0.00 62 1016.9
20260905082026 77 0 0.0 0.0 0.00 0.00 0.00 61 1016.9
20260905081526 77 0 0.0 0.0 0.00 0.00 0.00 61 1017.0
20260905081026 77 0 0.0 0.0 0.00 0.00 0.00 61 1016.8
20260905080526 77 0 0.0 0.0 0.00 0.00 0.00 61 1016.8
20260905080005 77 0 0.0 0.0 0.00 0.00 0.00 61 1017.0
20260905075505 77 0 0.0 0.0 0.00 0.00 0.00 62 1016.7
20260905075005 77 0 0.0 0.0 0.00 0.00 0.00 62 1016.7
20260905074505 76 0 0.0 0.0 0.00 0.00 0.00 62 1016.7
20260905074005 76 0 0.0 0.0 0.00 0.00 0.00 63 1016.5
20260905073505 76 0 0.0 0.0 0.00 0.00 0.00 63 1016.6
20260905073005 75 0 0.0 0.0 0.00 0.00 0.00 64 1016.7
20260905072505 75 0 0.0 0.0 0.00 0.00 0.00 64 1016.6
20260905072026 75 0 0.0 0.0 0.00 0.00 0.00 64 1016.6
20260905071505 75 0 0.0 0.0 0.00 0.00 0.00 65 1016.6
20260905071005 75 0 0.0 0.0 0.00 0.00 0.00 65 1016.5
20260905070505 73 0 0.0 0.0 0.00 0.00 0.00 66 1016.5
20260905070005 73 0 0.0 0.0 0.00 0.00 0.00 66 1016.4
20260905065505 73 0 0.0 0.0 0.00 0.00 0.00 65 1016.5
20260905065005 73 0 0.0 0.0 0.00 0.00 0.00 65 1016.3
20260905064505 73 0 0.0 0.0 0.00 0.00 0.00 65 1016.5
20260905064026 72 0 0.0 0.0 0.00 0.00 0.00 64 1016.4
20260905063505 72 0 0.0 0.0 0.00 0.00 0.00 65 1016.4
20260905063026 73 0 0.0 0.0 0.00 0.00 0.00 65 1016.5
20260905062505 73 0 0.0 0.0 0.00 0.00 0.00 65 1016.3
20260905062005 73 0 0.0 0.0 0.00 0.00 0.00 65 1016.4
20260905061505 73 0 0.0 0.0 0.00 0.00 0.00 64 1016.3
20260905061005 73 0 0.0 0.0 0.00 0.00 0.00 65 1016.2
20260905060505 73 0 0.0 0.0 0.00 0.00 0.00 66 1016.1
20260905060005 73 0 0.0 0.0 0.00 0.00 0.00 66 1016.2
20260905055505 72 0 0.0 0.0 0.00 0.00 0.00 70 1016.1
20260905055005 72 0 0.0 0.0 0.00 0.00 0.00 70 1016.3
20260905054505 71 8 0.9 3.5 0.00 0.00 0.00 71 1016.1
20260905054026 70 11 2.6 3.5 0.00 0.00 0.00 72 1016.2
20260905053505 70 12 1.7 3.5 0.00 0.00 0.00 72 1016.1
20260905053005 69 360 0.9 2.6 0.00 0.00 0.00 72 1016.1
20260905052505 69 8 1.7 4.3 0.00 0.00 0.00 72 1016.0
20260905052026 69 11 3.5 4.3 0.00 0.00 0.00 72 1016.0
20260905051505 69 8 2.6 4.3 0.00 0.00 0.00 71 1015.9
20260905051005 69 348 1.7 3.5 0.00 0.00 0.00 70 1015.8
20260905050505 69 343 0.9 2.6 0.00 0.00 0.00 70 1015.9
20260905050005 69 350 0.9 2.6 0.00 0.00 0.00 69 1015.9
20260905045505 69 354 2.6 4.3 0.00 0.00 0.00 68 1015.7
20260905045026 70 1 2.6 4.3 0.00 0.00 0.00 68 1015.6
20260905044505 70 6 2.6 3.5 0.00 0.00 0.00 68 1015.6
20260905044026 70 11 1.7 3.5 0.00 0.00 0.00 68 1015.7
20260905043526 70 20 1.7 3.5 0.00 0.00 0.00 68 1015.6
20260905043005 70 26 1.7 3.5 0.00 0.00 0.00 68 1015.5
20260905042505 70 30 1.7 3.5 0.00 0.00 0.00 69 1015.2
20260905042026 70 30 1.7 5.2 0.00 0.00 0.00 69 1015.2
20260905041505 70 19 2.6 5.2 0.00 0.00 0.00 70 1015.5
20260905041005 70 17 1.7 4.3 0.00 0.00 0.00 70 1015.5
20260905040505 70 2 0.9 3.5 0.00 0.00 0.00 70 1015.5
20260905040026 70 1 0.9 3.5 0.00 0.00 0.00 70 1015.3
20260905035505 70 360 0.0 0.9 0.00 0.00 0.00 70 1015.5
20260905035005 70 0 0.0 0.0 0.00 0.00 0.00 69 1015.5
20260905034505 70 0 0.0 0.0 0.00 0.00 0.00 70 1015.5
20260905034026 70 60 0.0 1.7 0.00 0.00 0.00 70 1015.7
20260905033526 69 60 0.0 1.7 0.00 0.00 0.00 70 1015.5
20260905033005 70 0 0.0 0.0 0.00 0.00 0.00 69 1015.6
20260905032505 70 0 0.0 0.0 0.00 0.00 0.00 68 1015.7
20260905032005 70 0 0.0 0.0 0.00 0.00 0.00 67 1015.7
20260905031505 71 0 0.0 0.0 0.00 0.00 0.00 66 1015.6
20260905031005 71 14 0.9 3.5 0.00 0.00 0.00 66 1016.0
20260905030505 71 18 2.6 3.5 0.00 0.00 0.00 66 1016.0
20260905030005 71 13 2.6 3.5 0.00 0.00 0.00 67 1015.8
20260905025505 71 1 2.6 3.5 0.00 0.00 0.00 67 1015.7
20260905025005 71 353 1.7 3.5 0.00 0.00 0.00 67 1015.9
20260905024526 71 360 0.9 3.5 0.00 0.00 0.00 66 1015.8
20260905024026 71 352 1.7 3.5 0.00 0.00 0.00 66 1015.9
20260905023505 71 357 1.7 3.5 0.00 0.00 0.00 66 1015.9
20260905023005 71 9 2.6 3.5 0.00 0.00 0.00 65 1015.7
20260905022505 72 13 2.6 3.5 0.00 0.00 0.00 65 1015.8
20260905022005 72 2 1.7 3.5 0.00 0.00 0.00 65 1015.8
20260905021505 72 10 2.6 5.2 0.00 0.00 0.00 65 1015.7
20260905021005 72 56 4.3 5.2 0.00 0.00 0.00 65 1015.8
20260905020505 72 53 4.3 5.2 0.00 0.00 0.00 65 1015.7
20260905020005 72 17 3.5 5.2 0.00 0.00 0.00 65 1015.9
20260905015505 72 15 3.5 5.2 0.00 0.00 0.00 65 1016.0
20260905015026 72 20 3.5 5.2 0.00 0.00 0.00 65 1016.1
20260905014526 72 17 2.6 4.3 0.00 0.00 0.00 65 1016.0
20260905014005 72 7 2.6 3.5 0.00 0.00 0.00 64 1016.2
20260905013505 72 7 2.6 5.2 0.00 0.00 0.00 61 1016.1
20260905013005 72 23 2.6 5.2 0.00 0.00 0.00 61 1016.2
20260905012526 72 28 2.6 5.2 0.00 0.00 0.00 61 1016.1
20260905012026 72 33 0.9 3.5 0.00 0.00 0.00 61 1016.1
20260905011505 72 34 0.9 2.6 0.00 0.00 0.00 61 1016.4
20260905011005 72 37 0.9 2.6 0.00 0.00 0.00 61 1016.1
20260905010526 73 0 0.0 0.0 0.00 0.00 0.00 60 1016.2
20260905010005 73 0 0.0 0.0 0.00 0.00 0.00 60 1016.2
20260905005526 73 67 0.0 0.9 0.00 0.00 0.00 60 1016.2
20260905005005 73 39 0.0 0.9 0.00 0.00 0.00 60 1016.3
20260905004505 73 22 0.0 0.9 0.00 0.00 0.00 60 1016.2
20260905004005 74 39 0.0 0.9 0.00 0.00 0.00 60 1016.3
20260905003505 74 42 0.0 0.9 0.00 0.00 0.00 59 1016.3
20260905003005 73 22 0.0 0.9 0.00 0.00 0.00 58 1016.3
20260905002505 73 22 0.0 0.9 0.00 0.00 0.00 56 1016.6
20260905002005 72 0 0.0 0.0 0.00 0.00 0.00 57 1016.5
20260905001505 72 0 0.0 0.0 0.00 0.00 0.00 61 1016.6
20260905001005 72 0 0.0 0.0 0.00 0.00 0.00 61 1016.5
20260905000505 72 0 0.0 0.0 0.00 0.00 0.00 58 1016.5
20260905000005 72 0 0.0 0.0 0.00 0.00 0.00 58 1016.8
20260904235505 73 0 0.0 0.0 0.00 0.00 0.00 58 1016.8
20260904235026 73 0 0.0 0.0 0.00 0.00 0.00 57 1016.7
20260904234505 73 0 0.0 0.0 0.00 0.00 0.00 57 1016.5
20260904234005 73 0 0.0 0.0 0.00 0.00 0.00 56 1016.8
20260904233505 73 0 0.0 0.0 0.00 0.00 0.00 55 1016.8
20260904233005 73 0 0.0 0.0 0.00 0.00 0.00 53 1016.8
20260904232505 73 0 0.0 0.0 0.00 0.00 0.00 53 1016.8
20260904232026 73 0 0.0 0.0 0.00 0.00 0.00 53 1016.7
20260904231025 74 67 0.0 0.9 0.00 0.00 0.00 53 1016.7
20260904230525 74 67 0.0 0.9 0.00 0.00 0.00 52 1016.6
20260904230004 74 0 0.0 0.0 0.00 0.00 0.00 52 1016.8
20260904225504 74 0 0.0 0.0 0.00 0.00 0.00 51 1016.7
20260904225004 74 0 0.0 0.0 0.00 0.00 0.00 51 1016.8
20260904224504 73 0 0.0 0.0 0.00 0.00 0.00 51 1016.9
20260904224004 73 0 0.0 0.0 0.00 0.00 0.00 50 1016.8
20260904223504 74 0 0.0 0.0 0.00 0.00 0.00 50 1016.9
20260904223004 74 0 0.0 0.0 0.00 0.00 0.00 51 1017.0
20260904222504 74 0 0.0 0.0 0.00 0.00 0.00 50 1016.9
20260904222004 74 0 0.0 0.0 0.00 0.00 0.00 49 1017.0
20260904221504 74 0 0.0 0.0 0.00 0.00 0.00 48 1016.7
20260904221004 74 0 0.0 0.0 0.00 0.00 0.00 45 1016.8
20260904220504 75 0 0.0 0.0 0.00 0.00 0.00 42 1016.9
20260904220004 75 0 0.0 0.0 0.00 0.00 0.00 42 1016.9
20260904215504 75 0 0.0 0.0 0.00 0.00 0.00 41 1016.8
20260904215004 75 0 0.0 0.0 0.00 0.00 0.00 42 1017.0
20260904214504 75 67 0.0 0.9 0.00 0.00 0.00 44 1016.9
20260904214025 75 67 0.0 0.9 0.00 0.00 0.00 44 1017.0
20260904213504 75 0 0.0 0.0 0.00 0.00 0.00 43 1017.2
20260904213004 76 0 0.0 0.0 0.00 0.00 0.00 42 1017.3
20260904212504 76 0 0.0 0.0 0.00 0.00 0.00 41 1017.0
20260904212004 76 0 0.0 0.0 0.00 0.00 0.00 42 1017.1
20260904211525 76 0 0.0 0.0 0.00 0.00 0.00 43 1017.1
20260904211004 76 0 0.0 0.0 0.00 0.00 0.00 43 1017.2
20260904210525 77 0 0.0 0.0 0.00 0.00 0.00 44 1017.2
20260904210004 77 0 0.0 0.0 0.00 0.00 0.00 44 1017.2
20260904205504 76 0 0.0 0.0 0.00 0.00 0.00 45 1017.3
20260904205025 76 0 0.0 0.0 0.00 0.00 0.00 46 1017.4
20260904204504 77 0 0.0 0.0 0.00 0.00 0.00 48 1017.3
20260904204004 77 0 0.0 0.0 0.00 0.00 0.00 48 1017.5
20260904203504 77 0 0.0 0.0 0.00 0.00 0.00 49 1017.4
20260904203004 77 0 0.0 0.0 0.00 0.00 0.00 49 1017.4
20260904202504 78 0 0.0 0.0 0.00 0.00 0.00 49 1017.4
20260904202004 78 0 0.0 0.0 0.00 0.00 0.00 49 1017.4
20260904201504 78 0 0.0 0.0 0.00 0.00 0.00 50 1017.4
20260904201025 78 0 0.0 0.0 0.00 0.00 0.00 50 1017.5
20260904200525 78 0 0.0 0.0 0.00 0.00 0.00 51 1017.4
20260904200004 78 0 0.0 0.0 0.00 0.00 0.00 51 1017.3
20260904195525 78 0 0.0 0.0 0.00 0.00 0.00 52 1017.4
20260904195004 78 0 0.0 0.0 0.00 0.00 0.00 54 1017.3
20260904194504 78 0 0.0 0.0 0.00 0.00 0.00 55 1017.3
20260904194004 78 135 0.0 1.7 0.00 0.00 0.00 56 1017.3
20260904193504 78 135 0.0 1.7 0.00 0.00 0.00 55 1017.2
20260904193004 79 0 0.0 0.0 0.00 0.00 0.00 54 1017.3
20260904192504 79 0 0.0 0.0 0.00 0.00 0.00 53 1017.0
20260904192004 79 0 0.0 0.0 0.00 0.00 0.00 53 1017.0
20260904191525 79 0 0.0 0.0 0.00 0.00 0.00 52 1017.1
20260904191004 79 0 0.0 0.0 0.00 0.00 0.00 52 1017.2
20260904190504 80 0 0.0 0.0 0.00 0.00 0.00 52 1017.0
20260904190004 80 0 0.0 0.0 0.00 0.00 0.00 52 1017.1
20260904185504 80 0 0.0 0.0 0.00 0.00 0.00 52 1017.0
20260904185025 80 0 0.0 0.0 0.00 0.00 0.00 52 1016.9
20260904184504 81 0 0.0 0.0 0.00 0.00 0.00 51 1017.0
20260904184025 81 0 0.0 0.0 0.00 0.00 0.00 51 1016.8
20260904183525 81 0 0.0 0.0 0.00 0.00 0.00 51 1016.9
20260904183004 81 0 0.0 0.0 0.00 0.00 0.00 50 1016.8
20260904182525 81 0 0.0 0.0 0.00 0.00 0.00 50 1016.8
20260904182004 82 0 0.0 0.0 0.00 0.00 0.00 46 1016.8
20260904181504 82 0 0.0 0.0 0.00 0.00 0.00 45 1016.8
20260904181004 82 0 0.0 0.0 0.00 0.00 0.00 44 1016.8
20260904180504 83 0 0.0 0.0 0.00 0.00 0.00 43 1016.7
20260904180004 83 0 0.0 0.0 0.00 0.00 0.00 43 1016.8
20260904175504 83 0 0.0 0.0 0.00 0.00 0.00 43 1016.7
20260904175004 83 0 0.0 0.0 0.00 0.00 0.00 43 1016.7
20260904174504 84 0 0.0 0.0 0.00 0.00 0.00 43 1016.6
20260904174004 84 0 0.0 0.0 0.00 0.00 0.00 43 1016.8
20260904173504 85 0 0.0 0.0 0.00 0.00 0.00 44 1016.5
20260904173004 85 0 0.0 0.0 0.00 0.00 0.00 42 1016.6
20260904172504 85 0 0.0 0.0 0.00 0.00 0.00 42 1016.4
20260904172004 86 0 0.0 0.0 0.00 0.00 0.00 41 1016.4
20260904171504 87 0 0.0 0.0 0.00 0.00 0.00 41 1016.6
20260904171004 87 0 0.0 0.0 0.00 0.00 0.00 40 1016.6
20260904170525 88 0 0.0 0.0 0.00 0.00 0.00 40 1016.6
20260904170025 88 0 0.0 0.0 0.00 0.00 0.00 40 1016.7
20260904165504 89 0 0.0 0.0 0.00 0.00 0.00 40 1016.6
20260904165004 89 0 0.0 0.0 0.00 0.00 0.00 40 1016.6
20260904164504 90 0 0.0 0.0 0.00 0.00 0.00 39 1016.8
20260904164004 90 0 0.0 0.0 0.00 0.00 0.00 38 1016.7
20260904163504 90 0 0.0 0.0 0.00 0.00 0.00 37 1016.8
20260904163004 90 0 0.0 0.0 0.00 0.00 0.00 37 1016.7
20260904162525 90 0 0.0 0.0 0.00 0.00 0.00 37 1016.8
20260904162004 90 0 0.0 0.0 0.00 0.00 0.00 37 1016.8
20260904161504 90 0 0.0 0.0 0.00 0.00 0.00 36 1016.9
20260904161004 90 0 0.0 0.0 0.00 0.00 0.00 36 1016.8
20260904160504 90 315 0.0 0.9 0.00 0.00 0.00 35 1016.8
20260904160004 90 315 0.0 0.9 0.00 0.00 0.00 35 1016.9
20260904155504 90 307 0.0 0.9 0.00 0.00 0.00 32 1017.1
20260904155004 90 271 0.0 0.9 0.00 0.00 0.00 32 1016.9
20260904154525 91 285 0.0 0.9 0.00 0.00 0.00 33 1017.1
20260904154004 91 309 0.0 0.9 0.00 0.00 0.00 33 1017.0
20260904153504 91 297 0.0 0.9 0.00 0.00 0.00 32 1017.0
20260904153004 91 281 0.0 0.9 0.00 0.00 0.00 33 1017.2
20260904152504 91 0 0.0 0.0 0.00 0.00 0.00 33 1017.1
20260904152004 90 0 0.0 0.0 0.00 0.00 0.00 33 1017.1
20260904151504 90 181 0.0 1.7 0.00 0.00 0.00 37 1017.2
20260904151004 90 243 0.9 1.7 0.00 0.00 0.00 36 1017.2
20260904150504 90 258 0.9 1.7 0.00 0.00 0.00 33 1017.3
20260904150004 90 290 0.9 3.5 0.00 0.00 0.00 33 1017.3
20260904145504 90 296 0.9 3.5 0.00 0.00 0.00 33 1017.3
20260904145004 90 318 0.9 3.5 0.00 0.00 0.00 33 1017.4
20260904144504 90 306 0.9 3.5 0.00 0.00 0.00 33 1017.3
20260904144004 91 288 0.9 3.5 0.00 0.00 0.00 32 1017.4
20260904143525 91 235 1.7 7.0 0.00 0.00 0.00 32 1017.5
20260904143004 91 234 1.7 7.0 0.00 0.00 0.00 32 1017.4
20260904142504 91 305 0.0 1.7 0.00 0.00 0.00 32 1017.5
20260904142004 91 307 0.0 1.7 0.00 0.00 0.00 32 1017.5
20260904141525 91 262 0.9 3.5 0.00 0.00 0.00 33 1017.7
20260904141025 91 251 0.9 3.5 0.00 0.00 0.00 33 1017.7
20260904140504 90 0 0.0 0.0 0.00 0.00 0.00 33 1017.7
20260904140004 90 247 0.0 0.9 0.00 0.00 0.00 33 1017.5
20260904135504 90 247 0.0 0.9 0.00 0.00 0.00 38 1017.7
20260904135004 90 281 0.9 4.3 0.00 0.00 0.00 39 1017.5
20260904134504 89 246 3.5 7.0 0.00 0.00 0.00 38 1017.6
20260904134004 90 236 5.2 7.0 0.00 0.00 0.00 38 1017.7
20260904133504 89 235 2.6 7.0 0.00 0.00 0.00 39 1017.8
20260904133004 89 309 0.9 3.5 0.00 0.00 0.00 39 1017.6
20260904132504 89 313 1.7 3.5 0.00 0.00 0.00 38 1017.8
20260904132004 89 241 2.6 7.0 0.00 0.00 0.00 38 1017.8
20260904131504 89 219 2.6 7.0 0.00 0.00 0.00 38 1017.9
20260904131004 89 244 3.5 7.0 0.00 0.00 0.00 39 1017.9
20260904130504 89 247 2.6 5.2 0.00 0.00 0.00 39 1017.9
20260904130004 89 240 0.0 5.2 0.00 0.00 0.00 39 1017.9
20260904125504 89 178 0.9 4.3 0.00 0.00 0.00 40 1018.3
20260904125004 89 193 1.7 7.0 0.00 0.00 0.00 39 1018.0
20260904124504 89 117 1.7 7.0 0.00 0.00 0.00 39 1018.4
20260904124004 89 71 0.9 5.2 0.00 0.00 0.00 39 1018.4
20260904123525 89 297 0.0 2.6 0.00 0.00 0.00 40 1018.4
20260904123004 88 283 0.9 3.5 0.00 0.00 0.00 40 1018.5
20260904122504 88 173 1.7 4.3 0.00 0.00 0.00 40 1018.4
20260904122004 88 141 1.7 4.3 0.00 0.00 0.00 39 1018.5
20260904121504 88 161 1.7 4.3 0.00 0.00 0.00 40 1018.4
20260904121004 89 179 0.9 3.5 0.00 0.00 0.00 40 1018.6
20260904120504 88 315 0.0 0.9 0.00 0.00 0.00 40 1018.5
20260904120004 88 228 0.0 0.9 0.00 0.00 0.00 40 1018.6
20260904115504 88 232 0.0 0.9 0.00 0.00 0.00 40 1018.6
20260904115004 88 105 0.0 1.7 0.00 0.00 0.00 40 1018.5
20260904114504 87 98 0.0 1.7 0.00 0.00 0.00 40 1018.8
20260904114004 87 220 0.9 4.3 0.00 0.00 0.00 40 1018.5
20260904113504 87 218 2.6 5.2 0.00 0.00 0.00 40 1018.8
20260904113004 87 213 1.7 5.2 0.00 0.00 0.00 40 1018.8
20260904112504 87 194 0.0 3.5 0.00 0.00 0.00 40 1018.8
20260904112004 87 82 0.0 0.9 0.00 0.00 0.00 40 1018.8
20260904111504 87 180 0.9 2.6 0.00 0.00 0.00 39 1018.9
20260904111004 87 190 0.9 2.6 0.00 0.00 0.00 40 1018.9
20260904110504 87 227 0.9 3.5 0.00 0.00 0.00 40 1018.9
20260904110004 87 231 0.9 3.5 0.00 0.00 0.00 40 1018.9
20260904105525 87 315 0.0 0.9 0.00 0.00 0.00 40 1018.9
20260904105004 87 0 0.0 0.0 0.00 0.00 0.00 41 1019.0
20260904104504 87 0 0.0 0.0 0.00 0.00 0.00 40 1019.0
20260904104004 86 179 0.9 2.6 0.00 0.00 0.00 40 1019.1
20260904103525 86 183 0.9 2.6 0.00 0.00 0.00 40 1019.2
20260904103004 86 202 0.0 0.9 0.00 0.00 0.00 40 1019.1
20260904102525 86 0 0.0 0.0 0.00 0.00 0.00 40 1019.1
20260904102004 86 67 0.0 0.9 0.00 0.00 0.00 40 1019.4
20260904101504 86 67 0.0 0.9 0.00 0.00 0.00 40 1019.3
20260904101025 86 0 0.0 0.0 0.00 0.00 0.00 41 1019.3
20260904100504 85 0 0.0 0.0 0.00 0.00 0.00 42 1019.4
20260904100025 85 0 0.0 0.0 0.00 0.00 0.00 42 1019.3
20260904095525 84 22 0.0 0.9 0.00 0.00 0.00 42 1019.6
20260904095004 84 22 0.0 0.9 0.00 0.00 0.00 42 1019.6
20260904094504 84 0 0.0 0.0 0.00 0.00 0.00 43 1019.6
20260904094004 83 0 0.0 0.0 0.00 0.00 0.00 43 1019.6
20260904093504 83 0 0.0 0.0 0.00 0.00 0.00 43 1019.7
20260904093004 83 315 0.0 0.9 0.00 0.00 0.00 43 1019.8
20260904092504 83 315 0.0 0.9 0.00 0.00 0.00 44 1019.7
20260904092004 83 360 0.0 1.7 0.00 0.00 0.00 43 1019.8